STARLINK-5729, 55596

Orbit data source: Space-Track

STARLINK-5729, 55596 is a payload satellite owned by SpaceX/Seattle (US) in LEO that was launched on Sun, 12 Feb 2023 UTC via an FALCON 9 launch vehicle from the Air Force Eastern Test Range (AFETR). Payload-class satellites include a variety of spacecraft equipped with specific instruments for various scientific and technological missions. These include communications satellites like Starlink; space stations such as the ISS; scientific satellites like the Hubble; Earth observation satellites from companies like Planet Labs, Umbra, and HawkEye 360; GPS; miniature CubeSats for education and research; and military/defense satellites.

Loading next visibility...
Identifier
55596, 2023-020AD
Orbit
LEO
Country
Flag of USUS
Related business
Manufacturer
SpaceX/Seattle
Mission
Operational Commercial Communications
Bus & Motor
STARLINK, Unknown motor
Mass
305 kg wet, ~290 kg dry
Launch date (UTC)
2023-02-12 (3 years ago)
Launch vehicle
FALCON 9
Launch site
Air Force Eastern Test Range (AFETR)
Object type
Payload
Rocket body
Debris
Shape & HBR
Box + 1 Pan, 4.4 m
Radar Cross Section
13.562 m², Large (>1 m²)

Expand to show TLE details & history
Last TLE update: 15 hours ago

TLE from 15 hours ago
0 STARLINK-5729
1 55596U 23020AD  25260.24605864  .00000445  00000-0  48015-4 0  9992
2 55596  43.0017 226.6783 0001394 266.4592  93.6091 15.02544973142838
Epoch: 2025-09-17T05:54Z
TLE epoch observation values (Epoch: 2025-09-17T05:54:19.466Z)
Latitude
-0.00001°
Longitude
141.67241°
Altitude
558.891 km
Speed
7.584 km/s
True Right ascension
15h 06m 42s
True Declination
0° 00' 00"
Sunlit
Object was in daylight at epoch
Visualization orbit readout
Latitude
Unknown
Longitude
Unknown
Altitude
Unknown
Speed
Unknown
Apparent Right ascension
Unknown
Apparent Declination
Unknown
Sunlit
N/A
Visualization observer readout
Local Sidereal Time
14:07:18
Azimuth
Unknown
Elevation
Unknown
Doppler factor
Unknown
Orbital elements
Apogee altitude
561.943 km
Perigee altitude
560.008 km
Semi-major axis
6,939.113 km
Eccentricity
0.00014
Inclination
43.0017°
RAAN
226.6783°
Arg. of periapsis
266.4592°
True anomaly
93.62504°
Mean anomaly
93.6091°
Eccentric anomaly
93.61707°
Mean motion
3.7548 °/min
Orbital period
95.88 mins
BSTAR
0.000048015
Loading maneuver chart data...
Computing Atmospheric mass density...
Loading historical data...
Loading historical data...
Loading historical data...
Loading historical data...
Loading historical data...
Loading historical data...
Loading historical data...

Documentation

Showing up to 5 results
|